Weather in Batken

Kyrgyzstan     40°03′37″N   70°49′10″E
temp.,
°C
wind,
m/s
gust,
m/s
humid.,
%
clouds,
%
prec.,
mm/h
press.,
hPa
HPBL,
m
16 may, sun
sun1600:00+17se1134100 0.0 101111
03:00+16sw1137100 0.0 101111
06:00+14wsw11390 0.0 101111
09:00+18n21310 0.0 1013533
12:00+21n22270 0.0 10131123
15:00+23nne332373 0.1 10122874
18:00+19sse4538100 1.5 1014376
21:00+18sse3339100 0.0 101445
17 may, mon
mon1700:00+17s223599 0.0 101316
03:00+16s22320 0.0 101313
06:00+15s22320 0.0 101413
09:00+20n01240 0.0 1015462
12:00+23nne32230 0.0 10141877
15:00+25nne322085 0.0 10123227
18:00+22se553098 0.1 1013555
21:00+20sse223597 0.0 101213
18 may, tue
tue1800:00+20s223289 0.0 101212
03:00+17sw22370 0.0 101111
06:00+16ssw22360 0.0 101211
09:00+21wnw11260 0.0 1012519
12:00+24n32220 0.0 10102125
15:00+26n431947 0.0 10093104
18:00+25w4320100 0.1 10083006
21:00+20s4439100 0.4 1011164
19 may, wed
wed1900:00+19s323896 0.4 101030
03:00+19ssw2236100 0.0 100911
06:00+17s223635 0.0 100911
09:00+22sw112583 0.0 1009490
12:00+25n332022 0.0 10083181
15:00+25se332337 0.1 10072690
18:00+26wnw351989 0.2 10073647
21:00+19sse444199 0.1 1010176
20 may, thu
thu2000:00+20s433417 0.1 100940
03:00+19s333598 0.0 100927
06:00+18s113696 0.0 100911
09:00+22ne1127100 0.0 1009420
12:00+23nnw2221100 0.0 10091730
15:00+23se542756 0.1 10091096
18:00+18s7846100 1.0 1012506
21:00+17s454585 0.1 1012154